Hourly Data Report for September 13, 2017

All times are specified in Local Standard Time (LST). Add 1 hour to adjust for Daylight Saving Time where and when it is observed.

RESOLUTE BAY A
NUNAVUT

74°43'01.000" N
94°58'10.000" W
67.70 m
2403498
71924
YRB

Download Data

Hourly Data (September 2017)
Hourly Data Report for September 13, 2017
Temp Definition
°C
Dew Point Temp Definition
°C
Rel Hum Definition
%
Wind Dir Definition
10's deg

Wind Spd Definition
km/h
Visibility Definition
km
Stn Press Definition
kPa
Hmdx Definition


Wind Chill Definition


Weather Definition


TIME
00:00 Legend Double Dagger -5.4 -7.0 89 9 25 19.3 100.92   -13 Cloudy
01:00 Legend Double Dagger -5.4 -7.2 88 8 26 24.1 100.92   -13 LegendNANA
02:00 Legend Double Dagger -5.6 -7.5 87 8 28 24.1 100.91   -14 LegendNANA
03:00 Legend Double Dagger -5.4 -7.0 89 8 30 24.1 100.91   -14 Cloudy
04:00 Legend Double Dagger -5.6 -7.0 90 8 30 16.1 100.91   -14 LegendNANA
05:00 Legend Double Dagger -5.6 -7.3 88 8 28 19.3 100.90   -14 Snow
06:00 Legend Double Dagger -5.7 -7.4 88 8 27 8.1 100.89   -14 Snow,Fog
07:00 Legend Double Dagger -5.1 -7.0 87 9 25 4.8 100.88   -12 Snow,Fog
08:00 Legend Double Dagger -4.3 -6.1 87 9 25 3.2 100.87   -11 Snow
09:00 Legend Double Dagger -4.1 -5.7 89 9 26 3.2 100.84   -11 Snow
10:00 Legend Double Dagger -3.1 -4.5 90 11 29 2.8 100.81   -10 Snow
11:00 Legend Double Dagger -2.6 -3.5 93 13 29 2.8 100.77   -10 Snow
12:00 Legend Double Dagger -2.4 -3.5 92 13 28 2.8 100.75   -9 Snow
13:00 Legend Double Dagger -2.4 -3.7 91 13 33 3.2 100.75   -10 Snow
14:00 Legend Double Dagger -2.6 -3.6 93 13 34 1.6 100.74   -10 Snow
15:00 Legend Double Dagger -2.4 -3.5 92 13 25 1.6 100.75   -9 Snow
16:00 Legend Double Dagger -2.6 -4.0 90 11 28 2.0 100.75   -10 Snow
17:00 Legend Double Dagger -2.4 -3.6 91 12 23 2.0 100.75   -9 Snow
18:00 Legend Double Dagger -2.3 -3.2 93 13 20 1.6 100.75   -8 Snow
19:00 Legend Double Dagger -2.1 -3.0 93 13 21 2.0 100.74   -8 Snow
20:00 Legend Double Dagger -1.9 -2.7 94 12 17 4.0 100.73   -7 Snow
21:00 Legend Double Dagger -1.8 -2.7 94 12 18 6.4 100.69   -7 Snow
22:00 Legend Double Dagger -1.8 -2.5 95 13 17 6.4 100.70   -7 Snow
23:00 Legend Double Dagger -1.8 -2.4 96 12 16 6.4 100.68   -7 Snow

Notes on Data Quality.

Legend

  • E = Estimated
  • M = Missing
  • NA = Not Available
  • ‡ = Partner data that is not subject to review by the National Climate Archives
Date modified: